Time,TemperatureF,DewpointF,PressureIn,WindDirection,WindDirectionDegrees,WindSpeedMPH,WindSpeedGustMPH,Humidity,HourlyPrecipIn,Conditions,Clouds,dailyrainin,SolarRadiationWatts/m^2,SoftwareType,DateUTC
2013-02-22 00:01:00,43.6,23.1,30.23,ESE,107,0.0,1.0,44,0.00,OVC,,0.00,0.0,WeatherDisplay:10.37,2013-02-22 05:01:00,
2013-02-22 00:11:00,43.5,23.0,30.24,East,81,0.0,2.0,44,0.00,OVC,,0.00,0.0,WeatherDisplay:10.37,2013-02-22 05:11:00,
2013-02-22 00:16:00,43.3,22.3,30.25,SE,130,0.0,3.0,43,0.00,OVC,,0.00,0.0,WeatherDisplay:10.37,2013-02-22 05:16:00,
2013-02-22 00:21:00,43.3,22.8,30.25,South,175,0.0,1.0,44,0.00,OVC,,0.00,0.0,WeatherDisplay:10.37,2013-02-22 05:21:00,
2013-02-22 00:26:00,43.3,22.8,30.25,SSE,152,0.0,1.0,44,0.00,OVC,,0.00,0.0,WeatherDisplay:10.37,2013-02-22 05:26:00,
2013-02-22 00:31:00,43.2,23.3,30.26,ESE,123,0.0,0.0,45,0.00,OVC,,0.00,0.0,WeatherDisplay:10.37,2013-02-22 05:31:00,
2013-02-22 00:36:00,43.2,24.3,30.27,ESE,113,0.0,1.0,47,0.00,OVC,,0.00,0.0,WeatherDisplay:10.37,2013-02-22 05:36:00,
2013-02-22 00:41:00,43.2,24.3,30.27,ESE,113,0.0,0.0,47,0.00,OVC,,0.00,0.0,WeatherDisplay:10.37,2013-02-22 05:41:00,
2013-02-22 00:46:00,43.2,25.3,30.27,ESE,105,0.0,2.0,49,0.00,OVC,,0.00,0.0,WeatherDisplay:10.37,2013-02-22 05:46:00,
2013-02-22 00:51:00,43.1,24.7,30.27,East,83,0.0,1.0,48,0.00,OVC,,0.00,0.0,WeatherDisplay:10.37,2013-02-22 05:51:00,
2013-02-22 00:56:00,43.1,25.2,30.28,ENE,71,0.0,0.0,49,0.00,OVC,,0.00,0.0,WeatherDisplay:10.37,2013-02-22 05:56:00,
2013-02-22 01:01:00,43.1,26.2,30.30,ENE,71,0.0,0.0,51,0.00,OVC,,0.00,0.0,WeatherDisplay:10.37,2013-02-22 06:01:00,
2013-02-22 01:11:00,42.9,26.0,30.33,ENE,71,0.0,0.0,51,0.00,OVC,,0.00,0.0,WeatherDisplay:10.37,2013-02-22 06:11:00,
2013-02-22 01:16:00,42.8,26.4,30.33,ENE,71,0.0,0.0,52,0.00,OVC,,0.00,0.0,WeatherDisplay:10.37,2013-02-22 06:16:00,
2013-02-22 01:21:00,42.8,26.4,30.33,ENE,71,0.0,0.0,52,0.00,OVC,,0.00,0.0,WeatherDisplay:10.37,2013-02-22 06:21:00,
2013-02-22 01:26:00,42.6,27.1,30.34,ENE,71,0.0,0.0,54,0.00,OVC,,0.00,0.0,WeatherDisplay:10.37,2013-02-22 06:26:00,
2013-02-22 01:31:00,42.5,27.5,30.34,ENE,71,0.0,0.0,55,0.00,OVC,,0.00,0.0,WeatherDisplay:10.37,2013-02-22 06:31:00,
2013-02-22 01:36:00,42.3,26.4,30.33,ENE,71,0.0,0.0,53,0.00,OVC,,0.00,0.0,WeatherDisplay:10.37,2013-02-22 06:36:00,
2013-02-22 01:41:00,42.2,25.8,30.33,ENE,71,0.0,0.0,52,0.00,OVC,,0.00,0.0,WeatherDisplay:10.37,2013-02-22 06:41:00,
2013-02-22 01:46:00,42.1,25.8,30.33,ENE,71,0.0,0.0,52,0.00,OVC,,0.00,0.0,WeatherDisplay:10.37,2013-02-22 06:46:00,
2013-02-22 01:51:00,42.1,25.3,30.32,ENE,71,0.0,0.0,51,0.00,OVC,,0.00,0.0,WeatherDisplay:10.37,2013-02-22 06:51:00,
2013-02-22 01:56:00,41.9,25.5,30.31,ENE,71,0.0,0.0,52,0.00,OVC,,0.00,0.0,WeatherDisplay:10.37,2013-02-22 06:56:00,
2013-02-22 02:01:00,41.9,26.4,30.30,ENE,71,0.0,1.0,54,0.00,OVC,,0.00,0.0,WeatherDisplay:10.37,2013-02-22 07:01:00,
2013-02-22 02:11:00,41.6,29.9,30.28,ENE,71,0.0,0.0,63,0.01,RA,,0.01,0.0,WeatherDisplay:10.37,2013-02-22 07:11:00,
2013-02-22 02:16:00,41.3,29.6,30.28,ENE,71,0.0,0.0,63,0.02,RA,,0.02,0.0,WeatherDisplay:10.37,2013-02-22 07:16:00,
2013-02-22 02:21:00,41.1,30.2,30.28,ENE,71,0.0,0.0,65,0.02,RA,,0.02,0.0,WeatherDisplay:10.37,2013-02-22 07:21:00,
2013-02-22 02:26:00,40.9,31.9,30.28,ENE,71,0.0,0.0,70,0.03,RA,,0.03,0.0,WeatherDisplay:10.37,2013-02-22 07:26:00,
2013-02-22 02:31:00,40.3,32.7,30.28,ENE,71,0.0,1.0,74,0.04,RA,,0.04,0.0,WeatherDisplay:10.37,2013-02-22 07:31:00,
2013-02-22 02:36:00,39.7,32.8,30.28,ENE,71,0.0,1.0,76,0.06,RA,,0.06,0.0,WeatherDisplay:10.37,2013-02-22 07:36:00,
2013-02-22 02:41:00,39.3,32.7,30.28,ENE,71,0.0,0.0,77,0.07,RA,,0.07,0.0,WeatherDisplay:10.37,2013-02-22 07:41:00,
2013-02-22 02:46:00,39.2,32.6,30.28,ENE,71,0.0,0.0,77,0.08,RA,,0.08,0.0,WeatherDisplay:10.37,2013-02-22 07:46:00,
2013-02-22 02:51:00,38.9,32.6,30.28,ENE,71,0.0,1.0,78,0.09,RA,,0.09,0.0,WeatherDisplay:10.37,2013-02-22 07:51:00,
2013-02-22 02:56:00,38.5,32.9,30.29,ENE,71,0.0,2.0,80,0.10,RA,,0.10,0.0,WeatherDisplay:10.37,2013-02-22 07:56:00,
2013-02-22 03:01:00,38.1,32.8,30.29,ENE,71,0.0,1.0,81,0.11,-PL,,0.11,0.0,WeatherDisplay:10.37,2013-02-22 08:01:00,
2013-02-22 03:11:00,37.6,32.9,30.30,ENE,71,0.0,0.0,83,0.12,-PL,,0.13,0.0,WeatherDisplay:10.37,2013-02-22 08:11:00,
2013-02-22 03:16:00,37.5,33.1,30.30,ENE,71,0.0,2.0,84,0.12,-PL,,0.14,0.0,WeatherDisplay:10.37,2013-02-22 08:16:00,
2013-02-22 03:21:00,37.2,32.8,30.31,ENE,60,1.0,2.0,84,0.13,-PL,,0.15,0.0,WeatherDisplay:10.37,2013-02-22 08:21:00,
2013-02-22 03:26:00,37.0,32.9,30.31,NE,47,0.0,0.0,85,0.13,-PL,,0.16,0.0,WeatherDisplay:10.37,2013-02-22 08:26:00,
2013-02-22 03:31:00,36.8,32.7,30.31,NE,45,0.0,0.0,85,0.13,-PL,,0.17,0.0,WeatherDisplay:10.37,2013-02-22 08:31:00,
2013-02-22 03:36:00,36.6,32.8,30.31,NE,45,0.0,0.0,86,0.12,-PL,,0.18,0.0,WeatherDisplay:10.37,2013-02-22 08:36:00,
2013-02-22 03:41:00,36.6,32.8,30.32,NE,45,0.0,0.0,86,0.11,-PL,,0.18,0.0,WeatherDisplay:10.37,2013-02-22 08:41:00,
2013-02-22 03:46:00,36.5,32.7,30.32,NE,45,0.0,0.0,86,0.11,-PL,,0.19,0.0,WeatherDisplay:10.37,2013-02-22 08:46:00,
2013-02-22 03:51:00,36.5,32.7,30.31,NE,45,0.0,0.0,86,0.10,-PL,,0.19,0.0,WeatherDisplay:10.37,2013-02-22 08:51:00,
2013-02-22 03:56:00,36.3,32.8,30.31,NE,45,0.0,0.0,87,0.10,-PL,,0.20,0.0,WeatherDisplay:10.37,2013-02-22 08:56:00,
2013-02-22 04:01:00,36.2,32.7,30.31,NE,45,0.0,0.0,87,0.09,-PL,,0.20,0.0,WeatherDisplay:10.37,2013-02-22 09:01:00,
2013-02-22 04:11:00,36.0,32.8,30.29,NE,45,0.0,0.0,88,0.09,-PL,,0.22,0.0,WeatherDisplay:10.37,2013-02-22 09:11:00,
2013-02-22 04:16:00,35.9,32.7,30.27,NE,45,1.0,2.0,88,0.08,-PL,,0.22,0.0,WeatherDisplay:10.37,2013-02-22 09:16:00,
2013-02-22 04:21:00,35.8,32.6,30.27,NE,45,0.0,1.0,88,0.07,-PL,,0.22,0.0,WeatherDisplay:10.37,2013-02-22 09:21:00,
2013-02-22 04:26:00,35.6,32.7,30.27,NE,47,0.0,3.0,89,0.07,-PL,,0.23,0.0,WeatherDisplay:10.37,2013-02-22 09:26:00,
2013-02-22 04:31:00,35.5,32.6,30.26,ENE,62,0.0,2.0,89,0.07,-PL,,0.24,0.0,WeatherDisplay:10.37,2013-02-22 09:31:00,
2013-02-22 04:36:00,35.3,32.4,30.25,ENE,65,1.0,2.0,89,0.07,-PL,,0.25,0.0,WeatherDisplay:10.37,2013-02-22 09:36:00,
2013-02-22 04:41:00,35.1,32.2,30.26,NE,41,0.0,3.0,89,0.07,-PL,,0.25,0.0,WeatherDisplay:10.37,2013-02-22 09:41:00,
2013-02-22 04:46:00,35.0,32.0,30.26,NE,36,1.0,2.0,89,0.07,-PL,,0.26,0.0,WeatherDisplay:10.37,2013-02-22 09:46:00,
2013-02-22 04:51:00,34.9,32.0,30.26,NE,40,0.0,2.0,89,0.07,-PL,,0.26,0.0,WeatherDisplay:10.37,2013-02-22 09:51:00,
2013-02-22 04:56:00,34.7,31.8,30.27,NE,42,0.0,2.0,89,0.07,-PL,,0.27,0.0,WeatherDisplay:10.37,2013-02-22 09:56:00,
2013-02-22 05:01:00,34.6,31.7,30.27,East,83,0.0,1.0,89,0.07,-PL,,0.27,0.0,WeatherDisplay:10.37,2013-02-22 10:01:00,
2013-02-22 05:11:00,34.4,31.8,30.27,ESE,105,0.0,0.0,90,0.06,-PL,,0.28,0.0,WeatherDisplay:10.37,2013-02-22 10:11:00,
2013-02-22 05:16:00,34.4,31.8,30.25,ENE,78,0.0,1.0,90,0.07,-PL,,0.29,0.0,WeatherDisplay:10.37,2013-02-22 10:16:00,
2013-02-22 05:21:00,34.4,31.7,30.25,ENE,70,0.0,2.0,90,0.07,-PL,,0.29,0.0,WeatherDisplay:10.37,2013-02-22 10:21:00,
2013-02-22 05:26:00,34.3,31.7,30.25,East,84,0.0,1.0,90,0.06,-PL,,0.29,0.0,WeatherDisplay:10.37,2013-02-22 10:26:00,
2013-02-22 05:31:00,34.1,31.5,30.24,ENE,70,0.0,2.0,90,0.05,-PL,,0.29,0.0,WeatherDisplay:10.37,2013-02-22 10:31:00,
2013-02-22 05:36:00,34.1,31.5,30.25,ENE,66,0.0,2.0,90,0.04,-PL,,0.29,0.0,WeatherDisplay:10.37,2013-02-22 10:36:00,
2013-02-22 05:41:00,34.0,31.4,30.25,ESE,103,0.0,2.0,90,0.04,-PL,,0.29,0.0,WeatherDisplay:10.37,2013-02-22 10:41:00,
2013-02-22 05:46:00,34.0,31.4,30.24,ESE,102,0.0,1.0,90,0.03,-RA,,0.29,0.0,WeatherDisplay:10.37,2013-02-22 10:46:00,
2013-02-22 05:51:00,33.8,31.2,30.24,East,96,0.0,1.0,90,0.04,-RA,,0.30,0.0,WeatherDisplay:10.37,2013-02-22 10:51:00,
2013-02-22 05:56:00,33.8,31.2,30.24,East,97,1.0,5.0,90,0.03,-RA,,0.30,0.0,WeatherDisplay:10.37,2013-02-22 10:56:00,
2013-02-22 06:01:00,33.8,31.2,30.25,ENE,61,0.0,2.0,90,0.03,-RA,,0.30,0.0,WeatherDisplay:10.37,2013-02-22 11:01:00,
2013-02-22 06:11:00,33.7,31.1,30.25,NE,48,0.0,0.0,90,0.02,-RA,,0.30,0.0,WeatherDisplay:10.37,2013-02-22 11:11:00,
2013-02-22 06:16:00,33.7,31.1,30.25,ESE,117,0.0,2.0,90,0.01,-RA,,0.30,0.0,WeatherDisplay:10.37,2013-02-22 11:16:00,
2013-02-22 06:21:00,33.7,31.1,30.23,SSE,155,0.0,2.0,90,0.01,-RA,,0.30,0.0,WeatherDisplay:10.37,2013-02-22 11:21:00,
2013-02-22 06:26:00,33.7,31.1,30.22,SSE,162,0.0,2.0,90,0.01,-RA,,0.30,0.0,WeatherDisplay:10.37,2013-02-22 11:26:00,
2013-02-22 06:31:00,33.7,31.1,30.23,East,97,0.0,3.0,90,0.01,-RA,,0.30,0.0,WeatherDisplay:10.37,2013-02-22 11:31:00,
2013-02-22 06:36:00,33.5,30.9,30.26,NE,49,0.0,1.0,90,0.01,-RA,,0.30,0.0,WeatherDisplay:10.37,2013-02-22 11:36:00,
2013-02-22 06:41:00,33.5,30.9,30.27,NE,49,0.0,0.0,90,0.01,-RA,,0.30,0.0,WeatherDisplay:10.37,2013-02-22 11:41:00,
2013-02-22 06:46:00,33.5,31.2,30.27,NE,49,0.0,0.0,91,0.01,-RA,,0.30,0.0,WeatherDisplay:10.37,2013-02-22 11:46:00,
2013-02-22 06:51:00,33.5,31.2,30.27,NE,49,0.0,0.0,91,0.00,-RA,,0.30,0.0,WeatherDisplay:10.37,2013-02-22 11:51:00,
2013-02-22 06:56:00,33.5,31.2,30.28,NE,49,0.0,0.0,91,0.00,-RA,,0.30,0.0,WeatherDisplay:10.37,2013-02-22 11:56:00,
2013-02-22 07:01:00,33.4,31.1,30.28,NE,49,0.0,0.0,91,0.00,OVC,,0.30,0.0,WeatherDisplay:10.37,2013-02-22 12:01:00,
2013-02-22 07:11:00,33.4,31.1,30.28,NE,49,0.0,2.0,91,0.00,OVC,,0.30,0.0,WeatherDisplay:10.37,2013-02-22 12:11:00,
2013-02-22 07:16:00,33.4,31.1,30.27,NE,49,0.0,0.0,91,0.00,OVC,,0.30,5.8,WeatherDisplay:10.37,2013-02-22 12:16:00,
2013-02-22 07:21:00,33.4,31.1,30.28,NE,49,0.0,1.0,91,0.00,OVC,,0.30,8.0,WeatherDisplay:10.37,2013-02-22 12:21:00,
2013-02-22 07:26:00,33.4,31.1,30.28,NE,49,0.0,1.0,91,0.00,OVC,,0.30,13.8,WeatherDisplay:10.37,2013-02-22 12:26:00,
2013-02-22 07:31:00,33.4,31.1,30.30,NE,49,0.0,1.0,91,0.00,OVC,,0.30,16.1,WeatherDisplay:10.37,2013-02-22 12:31:00,
2013-02-22 07:36:00,33.4,31.1,30.29,NE,49,0.0,0.0,91,0.00,OVC,,0.30,24.2,WeatherDisplay:10.37,2013-02-22 12:36:00,
2013-02-22 07:41:00,33.4,31.1,30.29,East,87,0.0,0.0,91,0.00,OVC,,0.30,26.5,WeatherDisplay:10.37,2013-02-22 12:41:00,
2013-02-22 07:46:00,33.4,31.1,30.29,ESE,112,0.0,0.0,91,0.00,OVC,,0.30,28.7,WeatherDisplay:10.37,2013-02-22 12:46:00,
2013-02-22 07:51:00,33.4,31.1,30.30,East,99,0.0,2.0,91,0.00,OVC,,0.30,29.9,WeatherDisplay:10.37,2013-02-22 12:51:00,
2013-02-22 07:56:00,33.5,31.4,30.30,East,86,0.0,0.0,92,0.00,OVC,,0.30,24.2,WeatherDisplay:10.37,2013-02-22 12:56:00,
2013-02-22 08:01:00,33.5,31.4,30.30,East,86,0.0,0.0,92,0.00,OVC,,0.30,28.7,WeatherDisplay:10.37,2013-02-22 13:01:00,
2013-02-22 08:11:00,33.5,31.4,30.31,East,86,0.0,0.0,92,0.00,OVC,,0.30,42.6,WeatherDisplay:10.37,2013-02-22 13:11:00,
2013-02-22 08:16:00,33.5,31.2,30.31,East,86,0.0,1.0,91,0.00,OVC,,0.30,50.6,WeatherDisplay:10.37,2013-02-22 13:16:00,
2013-02-22 08:21:00,33.5,31.4,30.29,East,86,0.0,0.0,92,0.00,OVC,,0.30,56.4,WeatherDisplay:10.37,2013-02-22 13:21:00,
2013-02-22 08:26:00,33.5,31.4,30.30,ENE,73,0.0,2.0,92,0.00,OVC,,0.30,58.7,WeatherDisplay:10.37,2013-02-22 13:26:00,
2013-02-22 08:31:00,33.5,31.4,30.31,ENE,69,0.0,0.0,92,0.00,OVC,,0.30,46.0,WeatherDisplay:10.37,2013-02-22 13:31:00,
2013-02-22 08:36:00,33.7,31.6,30.30,ENE,69,0.0,1.0,92,0.00,OVC,,0.30,71.3,WeatherDisplay:10.37,2013-02-22 13:36:00,
2013-02-22 08:41:00,33.7,31.6,30.31,ENE,69,0.0,1.0,92,0.00,OVC,,0.30,82.8,WeatherDisplay:10.37,2013-02-22 13:41:00,
2013-02-22 08:46:00,33.7,31.6,30.31,ENE,69,0.0,1.0,92,0.00,OVC,,0.30,101.2,WeatherDisplay:10.37,2013-02-22 13:46:00,
2013-02-22 08:51:00,33.8,31.7,30.31,ENE,72,0.0,1.0,92,0.00,OVC,,0.30,127.7,WeatherDisplay:10.37,2013-02-22 13:51:00,
2013-02-22 08:56:00,34.0,31.9,30.30,ENE,74,0.0,2.0,92,0.00,OVC,,0.30,101.2,WeatherDisplay:10.37,2013-02-22 13:56:00,
2013-02-22 09:01:00,34.0,31.9,30.31,ENE,73,0.0,1.0,92,0.00,OVC,,0.30,106.9,WeatherDisplay:10.37,2013-02-22 14:01:00,
2013-02-22 09:11:00,34.1,32.0,30.32,ENE,73,0.0,0.0,92,0.00,OVC,,0.30,104.7,WeatherDisplay:10.37,2013-02-22 14:11:00,
2013-02-22 09:16:00,34.1,32.0,30.31,ENE,73,0.0,0.0,92,0.00,OVC,,0.30,104.7,WeatherDisplay:10.37,2013-02-22 14:16:00,
2013-02-22 09:21:00,34.3,32.2,30.30,ENE,73,0.0,0.0,92,0.00,OVC,,0.30,66.7,WeatherDisplay:10.37,2013-02-22 14:21:00,
2013-02-22 09:26:00,34.3,32.2,30.30,ENE,73,0.0,0.0,92,0.00,OVC,,0.30,54.0,WeatherDisplay:10.37,2013-02-22 14:26:00,
2013-02-22 09:31:00,34.3,32.2,30.30,ENE,69,0.0,2.0,92,0.00,OVC,,0.30,80.5,WeatherDisplay:10.37,2013-02-22 14:31:00,
2013-02-22 09:36:00,34.3,32.2,30.29,ENE,63,0.0,1.0,92,0.00,OVC,,0.30,95.4,WeatherDisplay:10.37,2013-02-22 14:36:00,
2013-02-22 09:41:00,34.4,32.3,30.28,East,82,0.0,2.0,92,0.00,OVC,,0.30,115.0,WeatherDisplay:10.37,2013-02-22 14:41:00,
2013-02-22 09:46:00,34.4,32.3,30.28,SE,126,0.0,1.0,92,0.00,OVC,,0.30,85.1,WeatherDisplay:10.37,2013-02-22 14:46:00,
2013-02-22 09:51:00,34.5,32.4,30.27,East,99,0.0,2.0,92,0.00,OVC,,0.30,82.8,WeatherDisplay:10.37,2013-02-22 14:51:00,
2013-02-22 09:56:00,34.6,32.5,30.28,ENE,57,1.0,3.0,92,0.00,OVC,,0.30,79.4,WeatherDisplay:10.37,2013-02-22 14:56:00,
2013-02-22 10:01:00,34.6,32.5,30.26,East,86,1.0,2.0,92,0.00,OVC,,0.30,119.6,WeatherDisplay:10.37,2013-02-22 15:01:00,
2013-02-22 10:11:00,34.6,32.2,30.27,ENE,65,1.0,3.0,91,0.00,OVC,,0.30,200.1,WeatherDisplay:10.37,2013-02-22 15:11:00,
2013-02-22 10:16:00,34.6,32.2,30.27,ESE,106,0.0,2.0,91,0.00,OVC,,0.30,222.0,WeatherDisplay:10.37,2013-02-22 15:16:00,
2013-02-22 10:21:00,34.9,32.5,30.26,East,83,0.0,2.0,91,0.00,OVC,,0.30,213.9,WeatherDisplay:10.37,2013-02-22 15:21:00,
2013-02-22 10:26:00,35.0,32.6,30.27,NE,55,1.0,2.0,91,0.00,OVC,,0.30,226.6,WeatherDisplay:10.37,2013-02-22 15:26:00,
2013-02-22 10:31:00,35.3,32.9,30.27,ENE,59,1.0,3.0,91,0.00,OVC,,0.30,162.1,WeatherDisplay:10.37,2013-02-22 15:31:00,
2013-02-22 10:36:00,35.3,32.9,30.27,NE,53,0.0,2.0,91,0.00,OVC,,0.30,181.7,WeatherDisplay:10.37,2013-02-22 15:36:00,
2013-02-22 10:41:00,35.5,33.1,30.28,SE,136,0.0,4.0,91,0.00,OVC,,0.30,155.3,WeatherDisplay:10.37,2013-02-22 15:41:00,
2013-02-22 10:46:00,35.5,32.9,30.28,ESE,104,1.0,3.0,90,0.00,OVC,,0.30,200.1,WeatherDisplay:10.37,2013-02-22 15:46:00,
2013-02-22 10:51:00,35.5,32.9,30.27,ENE,64,1.0,3.0,90,0.00,OVC,,0.30,224.2,WeatherDisplay:10.37,2013-02-22 15:51:00,
2013-02-22 10:56:00,35.8,33.2,30.28,ESE,121,0.0,2.0,90,0.00,OVC,,0.30,204.7,WeatherDisplay:10.37,2013-02-22 15:56:00,
2013-02-22 11:01:00,35.8,32.9,30.28,ESE,112,0.0,2.0,89,0.00,OVC,,0.30,139.1,WeatherDisplay:10.37,2013-02-22 16:01:00,
2013-02-22 11:11:00,36.0,33.1,30.28,East,82,0.0,1.0,89,0.00,OVC,,0.30,117.3,WeatherDisplay:10.37,2013-02-22 16:11:00,
2013-02-22 11:16:00,36.2,33.2,30.28,ENE,75,0.0,3.0,89,0.00,OVC,,0.30,173.6,WeatherDisplay:10.37,2013-02-22 16:16:00,
2013-02-22 11:21:00,36.3,33.4,30.27,ESE,103,0.0,2.0,89,0.00,OVC,,0.30,189.7,WeatherDisplay:10.37,2013-02-22 16:21:00,
2013-02-22 11:26:00,36.5,33.3,30.27,ESE,104,0.0,5.0,88,0.00,OVC,,0.30,135.7,WeatherDisplay:10.37,2013-02-22 16:26:00,
2013-02-22 11:31:00,36.6,33.4,30.27,ENE,67,0.0,1.0,88,0.00,OVC,,0.30,127.7,WeatherDisplay:10.37,2013-02-22 16:31:00,
2013-02-22 11:36:00,36.6,33.1,30.27,ENE,64,0.0,0.0,87,0.00,OVC,,0.30,151.8,WeatherDisplay:10.37,2013-02-22 16:36:00,
2013-02-22 11:41:00,36.8,33.3,30.28,ENE,64,0.0,1.0,87,0.00,OVC,,0.30,162.1,WeatherDisplay:10.37,2013-02-22 16:41:00,
2013-02-22 11:46:00,37.0,33.5,30.27,ENE,74,0.0,1.0,87,0.00,OVC,,0.30,253.0,WeatherDisplay:10.37,2013-02-22 16:46:00,
2013-02-22 11:51:00,37.3,33.5,30.27,ENE,74,0.0,2.0,86,0.00,OVC,,0.30,248.4,WeatherDisplay:10.37,2013-02-22 16:51:00,
2013-02-22 11:56:00,37.3,33.5,30.26,ENE,77,0.0,2.0,86,0.00,OVC,,0.30,179.4,WeatherDisplay:10.37,2013-02-22 16:56:00,
2013-02-22 12:01:00,37.3,33.2,30.26,East,79,0.0,2.0,85,0.00,OVC,,0.30,135.7,WeatherDisplay:10.37,2013-02-22 17:01:00,
2013-02-22 12:11:00,37.6,33.2,30.27,ENE,71,0.0,0.0,84,0.00,OVC,,0.30,154.1,WeatherDisplay:10.37,2013-02-22 17:11:00,
2013-02-22 12:16:00,37.8,33.1,30.26,ENE,70,0.0,1.0,83,0.00,OVC,,0.30,133.4,WeatherDisplay:10.37,2013-02-22 17:16:00,
2013-02-22 12:21:00,37.8,33.1,30.26,ENE,68,0.0,2.0,83,0.00,OVC,,0.30,127.7,WeatherDisplay:10.37,2013-02-22 17:21:00,
2013-02-22 12:26:00,37.8,33.1,30.26,ENE,67,0.0,2.0,83,0.00,OVC,,0.30,96.6,WeatherDisplay:10.37,2013-02-22 17:26:00,
2013-02-22 12:31:00,37.8,33.1,30.25,ENE,67,0.0,0.0,83,0.00,OVC,,0.30,85.1,WeatherDisplay:10.37,2013-02-22 17:31:00,
2013-02-22 12:36:00,37.9,32.9,30.25,ENE,67,0.0,0.0,82,0.00,OVC,,0.30,88.6,WeatherDisplay:10.37,2013-02-22 17:36:00,
2013-02-22 12:41:00,37.8,32.8,30.25,ESE,108,0.0,4.0,82,0.00,OVC,,0.30,82.8,WeatherDisplay:10.37,2013-02-22 17:41:00,
2013-02-22 12:46:00,37.8,32.8,30.25,SE,134,0.0,0.0,82,0.00,OVC,,0.30,69.0,WeatherDisplay:10.37,2013-02-22 17:46:00,
2013-02-22 12:51:00,37.8,32.8,30.25,SE,134,0.0,0.0,82,0.00,OVC,,0.30,71.3,WeatherDisplay:10.37,2013-02-22 17:51:00,
2013-02-22 12:56:00,37.8,32.8,30.25,SE,134,0.0,0.0,82,0.00,OVC,,0.30,82.8,WeatherDisplay:10.37,2013-02-22 17:56:00,
2013-02-22 13:01:00,37.8,33.1,30.24,SE,133,0.0,0.0,83,0.00,OVC,,0.30,96.6,WeatherDisplay:10.37,2013-02-22 18:01:00,
2013-02-22 13:11:00,37.8,32.8,30.23,SE,140,0.0,1.0,82,0.00,OVC,,0.30,77.1,WeatherDisplay:10.37,2013-02-22 18:11:00,
2013-02-22 13:16:00,37.8,32.8,30.23,ESE,109,0.0,2.0,82,0.00,OVC,,0.30,74.8,WeatherDisplay:10.37,2013-02-22 18:16:00,
2013-02-22 13:21:00,37.9,33.2,30.23,East,97,1.0,2.0,83,0.00,OVC,,0.30,85.1,WeatherDisplay:10.37,2013-02-22 18:21:00,
2013-02-22 13:26:00,37.8,32.8,30.22,East,89,1.0,2.0,82,0.00,OVC,,0.30,139.1,WeatherDisplay:10.37,2013-02-22 18:26:00,
2013-02-22 13:31:00,37.9,33.2,30.21,ENE,73,1.0,2.0,83,0.00,OVC,,0.30,197.8,WeatherDisplay:10.37,2013-02-22 18:31:00,
2013-02-22 13:36:00,38.1,33.4,30.20,East,96,0.0,2.0,83,0.00,OVC,,0.30,119.6,WeatherDisplay:10.37,2013-02-22 18:36:00,
2013-02-22 13:41:00,38.3,33.6,30.21,ENE,70,0.0,0.0,83,0.00,OVC,,0.30,98.9,WeatherDisplay:10.37,2013-02-22 18:41:00,
2013-02-22 13:46:00,38.3,33.6,30.20,NNE,21,0.0,0.0,83,0.00,OVC,,0.30,143.8,WeatherDisplay:10.37,2013-02-22 18:46:00,
2013-02-22 13:51:00,38.3,33.3,30.20,NNE,32,0.0,0.0,82,0.00,OVC,,0.30,120.8,WeatherDisplay:10.37,2013-02-22 18:51:00,
2013-02-22 13:56:00,38.3,33.3,30.20,NE,46,0.0,0.0,82,0.00,OVC,,0.30,123.1,WeatherDisplay:10.37,2013-02-22 18:56:00,
2013-02-22 14:01:00,38.5,33.5,30.22,NE,44,0.0,0.0,82,0.00,OVC,,0.30,69.0,WeatherDisplay:10.37,2013-02-22 19:01:00,
2013-02-22 14:11:00,38.5,33.2,30.21,ENE,62,0.0,3.0,81,0.00,OVC,,0.30,42.6,WeatherDisplay:10.37,2013-02-22 19:11:00,
2013-02-22 14:16:00,38.5,33.2,30.20,East,86,0.0,2.0,81,0.00,OVC,,0.30,104.7,WeatherDisplay:10.37,2013-02-22 19:16:00,
2013-02-22 14:21:00,38.5,33.2,30.19,East,93,0.0,2.0,81,0.01,RA,,0.31,64.4,WeatherDisplay:10.37,2013-02-22 19:21:00,
2013-02-22 14:26:00,38.6,33.6,30.19,East,93,0.0,1.0,82,0.02,RA,,0.32,69.0,WeatherDisplay:10.37,2013-02-22 19:26:00,
2013-02-22 14:31:00,38.6,33.9,30.19,East,90,0.0,2.0,83,0.02,RA,,0.32,80.5,WeatherDisplay:10.37,2013-02-22 19:31:00,
2013-02-22 14:36:00,38.6,34.2,30.19,East,97,0.0,3.0,84,0.02,OVC,,0.32,66.7,WeatherDisplay:10.37,2013-02-22 19:36:00,
2013-02-22 14:41:00,38.5,34.4,30.19,ESE,110,0.0,0.0,85,0.02,OVC,,0.32,69.0,WeatherDisplay:10.37,2013-02-22 19:41:00,
2013-02-22 14:46:00,38.5,34.4,30.19,ESE,111,0.0,0.0,85,0.02,OVC,,0.32,138.0,WeatherDisplay:10.37,2013-02-22 19:46:00,
2013-02-22 14:51:00,38.5,34.4,30.19,ESE,109,0.0,1.0,85,0.02,OVC,,0.32,80.5,WeatherDisplay:10.37,2013-02-22 19:51:00,
2013-02-22 14:56:00,38.5,34.7,30.18,ESE,108,0.0,1.0,86,0.02,OVC,,0.32,71.3,WeatherDisplay:10.37,2013-02-22 19:56:00,
2013-02-22 15:01:00,38.5,35.0,30.19,ESE,108,0.0,0.0,87,0.02,-RA,,0.32,44.8,WeatherDisplay:10.37,2013-02-22 20:01:00,
2013-02-22 15:11:00,38.3,34.8,30.19,ESE,108,0.0,0.0,87,0.02,-RA,,0.32,54.0,WeatherDisplay:10.37,2013-02-22 20:11:00,
2013-02-22 15:16:00,38.3,35.1,30.19,ENE,59,0.0,3.0,88,0.03,-RA,,0.33,44.8,WeatherDisplay:10.37,2013-02-22 20:16:00,
2013-02-22 15:21:00,38.2,35.0,30.19,NNE,18,0.0,2.0,88,0.02,-RA,,0.33,54.0,WeatherDisplay:10.37,2013-02-22 20:21:00,
2013-02-22 15:26:00,38.0,34.8,30.19,NNE,29,0.0,2.0,88,0.02,-RA,,0.34,50.6,WeatherDisplay:10.37,2013-02-22 20:26:00,
2013-02-22 15:31:00,37.9,34.7,30.18,NE,40,1.0,3.0,88,0.03,-RA,,0.35,16.1,WeatherDisplay:10.37,2013-02-22 20:31:00,
2013-02-22 15:36:00,37.8,34.8,30.19,NNE,31,1.0,3.0,89,0.04,-RA,,0.36,21.8,WeatherDisplay:10.37,2013-02-22 20:36:00,
2013-02-22 15:41:00,37.6,34.7,30.19,NNE,17,0.0,2.0,89,0.04,-RA,,0.36,28.7,WeatherDisplay:10.37,2013-02-22 20:41:00,
2013-02-22 15:46:00,37.5,34.6,30.19,NNE,17,0.0,0.0,89,0.05,-RA,,0.37,26.5,WeatherDisplay:10.37,2013-02-22 20:46:00,
2013-02-22 15:51:00,37.5,34.6,30.19,NNE,22,0.0,0.0,89,0.05,-RA,,0.37,26.5,WeatherDisplay:10.37,2013-02-22 20:51:00,
2013-02-22 15:56:00,37.3,34.4,30.20,NNE,28,0.0,0.0,89,0.05,-RA,,0.37,12.6,WeatherDisplay:10.37,2013-02-22 20:56:00,
2013-02-22 16:01:00,37.3,34.3,30.20,NNE,29,0.0,0.0,89,0.05,-RA,,0.37,13.8,WeatherDisplay:10.37,2013-02-22 21:01:00,
2013-02-22 16:11:00,37.2,34.5,30.21,NNE,29,0.0,0.0,90,0.06,-RA,,0.38,13.8,WeatherDisplay:10.37,2013-02-22 21:11:00,
2013-02-22 16:16:00,37.0,34.4,30.20,NNE,29,0.0,0.0,90,0.06,-RA,,0.39,26.5,WeatherDisplay:10.37,2013-02-22 21:16:00,
2013-02-22 16:21:00,37.0,34.3,30.20,NNE,29,0.0,0.0,90,0.06,-RA,,0.39,18.4,WeatherDisplay:10.37,2013-02-22 21:21:00,
2013-02-22 16:26:00,37.0,34.6,30.20,NNE,29,0.0,0.0,91,0.05,-RA,,0.39,21.8,WeatherDisplay:10.37,2013-02-22 21:26:00,
2013-02-22 16:31:00,36.9,34.5,30.20,NNE,29,0.0,0.0,91,0.04,-RA,,0.39,12.6,WeatherDisplay:10.37,2013-02-22 21:31:00,
2013-02-22 16:36:00,36.9,34.5,30.19,NNE,29,0.0,0.0,91,0.03,-RA,,0.39,21.8,WeatherDisplay:10.37,2013-02-22 21:36:00,
2013-02-22 16:41:00,36.9,34.5,30.19,NNE,29,0.0,0.0,91,0.03,-RA,,0.39,12.6,WeatherDisplay:10.37,2013-02-22 21:41:00,
2013-02-22 16:46:00,36.9,34.8,30.19,NNE,29,0.0,0.0,92,0.02,-RA,,0.39,12.6,WeatherDisplay:10.37,2013-02-22 21:46:00,
2013-02-22 16:51:00,36.9,34.8,30.19,NNE,29,0.0,0.0,92,0.02,-RA,,0.39,10.4,WeatherDisplay:10.37,2013-02-22 21:51:00,
2013-02-22 16:56:00,36.9,34.8,30.19,NNE,29,0.0,0.0,92,0.02,-RA,,0.39,5.8,WeatherDisplay:10.37,2013-02-22 21:56:00,
2013-02-22 17:01:00,36.9,34.8,30.19,NNE,29,0.0,0.0,92,0.02,-RA,,0.39,13.8,WeatherDisplay:10.37,2013-02-22 22:01:00,
2013-02-22 17:11:00,36.8,34.7,30.20,NNE,29,0.0,0.0,92,0.02,-RA,,0.40,8.0,WeatherDisplay:10.37,2013-02-22 22:11:00,
2013-02-22 17:16:00,36.8,34.7,30.19,NNE,29,0.0,0.0,92,0.01,-RA,,0.40,5.8,WeatherDisplay:10.37,2013-02-22 22:16:00,
2013-02-22 17:21:00,36.8,34.7,30.19,NNE,29,1.0,2.0,92,0.01,-RA,,0.40,8.0,WeatherDisplay:10.37,2013-02-22 22:21:00,
2013-02-22 17:26:00,36.8,34.7,30.18,NNE,29,0.0,0.0,92,0.01,-RA,,0.40,5.8,WeatherDisplay:10.37,2013-02-22 22:26:00,
2013-02-22 17:31:00,36.8,34.7,30.19,NNE,29,0.0,0.0,92,0.01,-RA,,0.40,0.0,WeatherDisplay:10.37,2013-02-22 22:31:00,
2013-02-22 17:36:00,36.8,34.7,30.19,NNE,29,0.0,1.0,92,0.01,-RA,,0.40,0.0,WeatherDisplay:10.37,2013-02-22 22:36:00,
2013-02-22 17:41:00,36.6,34.5,30.19,NNE,29,0.0,2.0,92,0.01,-RA,,0.40,0.0,WeatherDisplay:10.37,2013-02-22 22:41:00,
2013-02-22 17:46:00,36.6,34.8,30.19,NNE,29,0.0,0.0,93,0.01,-RA,,0.40,0.0,WeatherDisplay:10.37,2013-02-22 22:46:00,
2013-02-22 17:51:00,36.6,34.8,30.20,NNE,29,0.0,1.0,93,0.01,-RA,,0.40,0.0,WeatherDisplay:10.37,2013-02-22 22:51:00,
2013-02-22 17:56:00,36.6,34.8,30.19,NNE,29,0.0,2.0,93,0.01,-RA,,0.40,0.0,WeatherDisplay:10.37,2013-02-22 22:56:00,
2013-02-22 18:01:00,36.6,34.8,30.19,NNE,28,0.0,2.0,93,0.01,-RA,,0.40,0.0,WeatherDisplay:10.37,2013-02-22 23:01:00,
2013-02-22 18:11:00,36.6,34.8,30.19,NE,35,1.0,2.0,93,0.00,-RA,,0.40,0.0,WeatherDisplay:10.37,2013-02-22 23:11:00,
2013-02-22 18:16:00,36.5,34.7,30.19,NNE,32,0.0,3.0,93,0.00,-RA,,0.40,0.0,WeatherDisplay:10.37,2013-02-22 23:16:00,
2013-02-22 18:21:00,36.5,34.7,30.19,NNE,19,1.0,2.0,93,0.00,-RA,,0.40,0.0,WeatherDisplay:10.37,2013-02-22 23:21:00,
2013-02-22 18:26:00,36.5,34.7,30.19,NNE,18,0.0,2.0,93,0.00,-RA,,0.40,0.0,WeatherDisplay:10.37,2013-02-22 23:26:00,
2013-02-22 18:31:00,36.5,34.7,30.19,NNE,17,0.0,2.0,93,0.00,-RA,,0.40,0.0,WeatherDisplay:10.37,2013-02-22 23:31:00,
2013-02-22 18:36:00,36.5,34.7,30.19,NNE,17,0.0,2.0,93,0.00,-RA,,0.40,0.0,WeatherDisplay:10.37,2013-02-22 23:36:00,
2013-02-22 18:46:00,36.5,34.9,30.19,NNE,17,0.0,0.0,94,0.01,-RA,,0.41,0.0,WeatherDisplay:10.37,2013-02-22 23:46:00,
2013-02-22 18:56:00,36.5,34.9,30.18,NNE,17,0.0,0.0,94,0.01,-RA,,0.41,0.0,WeatherDisplay:10.37,2013-02-22 23:56:00,
2013-02-22 19:01:00,36.5,34.9,30.18,NNE,17,0.0,0.0,94,0.01,-DZ,,0.41,0.0,WeatherDisplay:10.37,2013-02-23 00:01:00,
2013-02-22 19:11:00,36.5,34.9,30.18,NNE,17,0.0,0.0,94,0.01,-DZ,,0.41,0.0,WeatherDisplay:10.37,2013-02-23 00:11:00,
2013-02-22 19:16:00,36.5,34.9,30.18,NNE,17,0.0,0.0,94,0.01,-DZ,,0.41,0.0,WeatherDisplay:10.37,2013-02-23 00:16:00,
2013-02-22 19:21:00,36.5,34.9,30.18,NNE,17,0.0,0.0,94,0.01,-DZ,,0.41,0.0,WeatherDisplay:10.37,2013-02-23 00:21:00,
2013-02-22 19:26:00,36.5,34.9,30.18,NNE,25,0.0,2.0,94,0.01,-DZ,,0.41,0.0,WeatherDisplay:10.37,2013-02-23 00:26:00,
2013-02-22 19:31:00,36.5,34.9,30.18,NNE,32,0.0,0.0,94,0.01,-DZ,,0.41,0.0,WeatherDisplay:10.37,2013-02-23 00:31:00,
2013-02-22 19:36:00,36.5,34.9,30.17,NNE,32,0.0,0.0,94,0.01,-DZ,,0.41,0.0,WeatherDisplay:10.37,2013-02-23 00:36:00,
2013-02-22 19:41:00,36.5,34.9,30.16,NNE,32,0.0,0.0,94,0.01,-DZ,,0.41,0.0,WeatherDisplay:10.37,2013-02-23 00:41:00,
2013-02-22 19:46:00,36.5,35.2,30.16,NE,38,1.0,3.0,95,0.00,-DZ,,0.41,0.0,WeatherDisplay:10.37,2013-02-23 00:46:00,
2013-02-22 19:51:00,36.5,35.2,30.16,NE,43,0.0,3.0,95,0.00,-DZ,,0.41,0.0,WeatherDisplay:10.37,2013-02-23 00:51:00,
2013-02-22 19:56:00,36.5,35.2,30.16,NE,54,0.0,0.0,95,0.00,-DZ,,0.41,0.0,WeatherDisplay:10.37,2013-02-23 00:56:00,
2013-02-22 20:01:00,36.5,35.2,30.16,ENE,78,0.0,0.0,95,0.00,-DZ,,0.41,0.0,WeatherDisplay:10.37,2013-02-23 01:01:00,
2013-02-22 20:11:00,36.6,35.3,30.17,East,79,1.0,2.0,95,0.00,-DZ,,0.41,0.0,WeatherDisplay:10.37,2013-02-23 01:11:00,
2013-02-22 20:16:00,36.6,35.3,30.18,ENE,60,0.0,1.0,95,0.00,-DZ,,0.41,0.0,WeatherDisplay:10.37,2013-02-23 01:16:00,
2013-02-22 20:21:00,36.8,35.5,30.18,NE,52,0.0,2.0,95,0.00,-DZ,,0.41,0.0,WeatherDisplay:10.37,2013-02-23 01:21:00,
2013-02-22 20:26:00,36.8,35.5,30.18,NE,40,1.0,5.0,95,0.00,-DZ,,0.41,0.0,WeatherDisplay:10.37,2013-02-23 01:26:00,
2013-02-22 20:31:00,36.8,35.5,30.18,NNE,31,0.0,5.0,95,0.00,-DZ,,0.41,0.0,WeatherDisplay:10.37,2013-02-23 01:31:00,
2013-02-22 20:36:00,36.8,35.5,30.18,NNE,24,1.0,2.0,95,0.00,-DZ,,0.41,0.0,WeatherDisplay:10.37,2013-02-23 01:36:00,
2013-02-22 20:41:00,36.9,35.6,30.18,NNE,16,0.0,2.0,95,0.00,-DZ,,0.41,0.0,WeatherDisplay:10.37,2013-02-23 01:41:00,
2013-02-22 20:46:00,36.9,35.6,30.18,NNE,12,0.0,2.0,95,0.00,-DZ,,0.41,0.0,WeatherDisplay:10.37,2013-02-23 01:46:00,
2013-02-22 20:56:00,36.9,35.6,30.18,North,11,0.0,2.0,95,0.01,-DZ,,0.42,0.0,WeatherDisplay:10.37,2013-02-23 01:56:00,
2013-02-22 21:01:00,36.9,35.6,30.18,NNE,13,0.0,0.0,95,0.01,-RA,,0.42,0.0,WeatherDisplay:10.37,2013-02-23 02:01:00,
2013-02-22 21:11:00,36.9,35.6,30.18,NNE,13,0.0,0.0,95,0.01,-RA,,0.42,0.0,WeatherDisplay:10.37,2013-02-23 02:11:00,
2013-02-22 21:16:00,37.0,35.7,30.18,NNE,12,0.0,0.0,95,0.01,-RA,,0.42,0.0,WeatherDisplay:10.37,2013-02-23 02:16:00,
2013-02-22 21:21:00,37.0,35.7,30.18,NNE,12,0.0,0.0,95,0.02,-RA,,0.43,0.0,WeatherDisplay:10.37,2013-02-23 02:21:00,
2013-02-22 21:26:00,37.0,35.7,30.17,NNE,12,0.0,0.0,95,0.02,-RA,,0.43,0.0,WeatherDisplay:10.37,2013-02-23 02:26:00,
2013-02-22 21:31:00,37.0,35.7,30.17,NNE,13,0.0,0.0,95,0.02,-RA,,0.43,0.0,WeatherDisplay:10.37,2013-02-23 02:31:00,
2013-02-22 21:36:00,37.0,36.0,30.17,NNE,13,0.0,0.0,96,0.02,-RA,,0.43,0.0,WeatherDisplay:10.37,2013-02-23 02:36:00,
2013-02-22 21:41:00,37.0,36.0,30.18,NNE,13,0.0,0.0,96,0.03,-RA,,0.44,0.0,WeatherDisplay:10.37,2013-02-23 02:41:00,
2013-02-22 21:46:00,37.0,36.0,30.18,NNE,13,0.0,0.0,96,0.03,-RA,,0.44,0.0,WeatherDisplay:10.37,2013-02-23 02:46:00,
2013-02-22 21:51:00,37.0,36.0,30.18,NNE,13,0.0,0.0,96,0.03,-RA,,0.44,0.0,WeatherDisplay:10.37,2013-02-23 02:51:00,
2013-02-22 21:56:00,37.0,36.0,30.18,NNE,13,0.0,0.0,96,0.02,-RA,,0.44,0.0,WeatherDisplay:10.37,2013-02-23 02:56:00,
2013-02-22 22:01:00,37.1,36.1,30.17,NNE,13,0.0,0.0,96,0.02,-RA,,0.44,0.0,WeatherDisplay:10.37,2013-02-23 03:01:00,
2013-02-22 22:11:00,37.2,36.2,30.17,NNE,13,0.0,1.0,96,0.02,-RA,,0.44,0.0,WeatherDisplay:10.37,2013-02-23 03:11:00,
2013-02-22 22:21:00,37.2,36.2,30.17,NNE,13,0.0,2.0,96,0.01,-RA,,0.44,0.0,WeatherDisplay:10.37,2013-02-23 03:21:00,
2013-02-22 22:26:00,37.2,36.2,30.17,NNE,13,0.0,0.0,96,0.01,-RA,,0.44,0.0,WeatherDisplay:10.37,2013-02-23 03:26:00,
2013-02-22 22:31:00,37.2,36.2,30.17,NNE,12,0.0,1.0,96,0.01,-RA,,0.44,0.0,WeatherDisplay:10.37,2013-02-23 03:31:00,
2013-02-22 22:36:00,37.2,36.2,30.17,North,11,0.0,0.0,96,0.01,-RA,,0.44,0.0,WeatherDisplay:10.37,2013-02-23 03:36:00,
2013-02-22 22:41:00,37.2,36.2,30.17,North,11,0.0,0.0,96,0.00,-RA,,0.44,0.0,WeatherDisplay:10.37,2013-02-23 03:41:00,
2013-02-22 22:46:00,37.2,36.2,30.16,NNE,27,0.0,3.0,96,0.00,-RA,,0.44,0.0,WeatherDisplay:10.37,2013-02-23 03:46:00,
2013-02-22 22:51:00,37.2,36.2,30.16,NNE,23,2.0,5.0,96,0.01,-RA,,0.45,0.0,WeatherDisplay:10.37,2013-02-23 03:51:00,
2013-02-22 22:56:00,37.2,36.2,30.17,North,4,0.0,3.0,96,0.01,-RA,,0.45,0.0,WeatherDisplay:10.37,2013-02-23 03:56:00,
2013-02-22 23:01:00,37.2,36.2,30.17,North,1,0.0,2.0,96,0.01,-RA,,0.45,0.0,WeatherDisplay:10.37,2013-02-23 04:01:00,
2013-02-22 23:11:00,37.2,36.2,30.16,North,3,1.0,3.0,96,0.01,-RA,,0.45,0.0,WeatherDisplay:10.37,2013-02-23 04:11:00,
2013-02-22 23:16:00,37.2,36.2,30.16,NNE,13,0.0,5.0,96,0.01,-RA,,0.45,0.0,WeatherDisplay:10.37,2013-02-23 04:16:00,
2013-02-22 23:21:00,37.2,36.2,30.16,NNE,16,0.0,2.0,96,0.01,-RA,,0.45,0.0,WeatherDisplay:10.37,2013-02-23 04:21:00,
2013-02-22 23:31:00,37.0,36.0,30.15,NNE,26,0.0,1.0,96,0.02,-RA,,0.46,0.0,WeatherDisplay:10.37,2013-02-23 04:31:00,
2013-02-22 23:36:00,37.0,36.0,30.14,NNE,29,0.0,2.0,96,0.02,-RA,,0.46,0.0,WeatherDisplay:10.37,2013-02-23 04:36:00,
2013-02-22 23:41:00,37.0,36.0,30.13,NNE,26,0.0,2.0,96,0.02,-RA,,0.46,0.0,WeatherDisplay:10.37,2013-02-23 04:41:00,
2013-02-22 23:46:00,37.0,36.0,30.13,NNE,26,0.0,0.0,96,0.02,-RA,,0.46,0.0,WeatherDisplay:10.37,2013-02-23 04:46:00,
2013-02-22 23:51:00,37.0,36.0,30.12,NNE,30,0.0,0.0,96,0.01,-RA,,0.46,0.0,WeatherDisplay:10.37,2013-02-23 04:51:00,
2013-02-22 23:56:00,37.0,36.0,30.12,NNE,31,0.0,0.0,96,0.01,-RA,,0.46,0.0,WeatherDisplay:10.37,2013-02-23 04:56:00,